Location: Losili
(4.4086°N, 32.7049°E)
Time: 03:53:28
(UTC+00:00)

ARIANE 5 R/B - Pass Details

Date: 18 September 2019
Orbit: 259 x 32107 km, 1.7° (Epoch: 15 October)

Event Time Altitude Azimuth Distance (km) Brightness Sun altitude
Rises 16:21:30 0° 250° (WSW) 1,892 6.0 -9.4°
Reaches altitude 10° 16:22:48 10° 239° (WSW) 1,254 4.6 -9.7°
Maximum altitude 16:24:59 37° 166° (SSE) 803 2.5 -10.2°
Enters shadow 16:29:40 13° 102° (ESE) 2,851 4.8 -11.4°
